Location: Colonie
(42.7179°N, 73.8335°W)
Time: 10:19:04
(UTC+00:00)

Cosmos 1758 Rocket - Pass Details

Date: 29 October 2020
Orbit: 601 x 637 km, 82.5° (Epoch: 23 November)

Event Time Altitude Azimuth Distance (km) Brightness Sun altitude
Rises 22:20:02 0° 347° (NNW) 2,901 7.0 -5.9°
Reaches altitude 10° 22:22:18 10° 344° (NNW) 1,985 6.2 -6.3°
Maximum altitude 22:26:36 58° 266° (W) 716 4.3 -7.1°
Drops below altitude 10° 22:30:51 10° 187° (S) 1,950 6.4 -7.9°
Sets 22:33:03 0° 183° (S) 2,844 7.2 -8.3°
